Location: ??????????
(60.6183°N, 46.8000°E)
Time: 06:57:01
(UTC+00:00)

Daily predictions for brighter satellites

Satellite Brightness Start Highest point End
(mag) Time Altitude Azimuth Time Altitude Azimuth Time Altitude Azimuth
Cosmos 2219 Rocket 4.5 13:30:13 10° NW 13:35:07 30° WSW 13:40:00 10° SSW
Cosmos 2219 4.2 13:30:33 10° SSE 13:35:20 30° ESE 13:40:10 10° NE
Cosmos 2297 Rocket 3.4 13:35:09 10° SSE 13:39:38 25° ESE 13:44:07 10° NE
Cosmos 1833 4.4 13:36:52 10° SW 13:42:37 84° NW 13:48:27 10° NE
CZ-4C R/B 4.1 13:39:47 10° N 13:43:17 47° WNW 13:46:49 10° SW
Cosmos 1939 Rocket 4.1 13:40:21 10° ESE 13:43:23 21° NE 13:46:29 10° N
Cosmos 1271 Rocket 2.7 13:39:42 10° S 13:43:26 65° ESE 13:47:16 10° NNE
SL-24 R/B - RUBIN 2 4.5 13:38:31 10° WSW 13:44:19 76° NNW 13:50:48 10° ENE
Meteor 1-28 Rocket 3.6 13:40:49 10° NNE 13:44:36 64° WNW 13:48:19 10° SSW
ATLAS CENTAUR R/B 4.3 13:39:34 10° SW 13:45:15 55° SE 14:00:42 10° ENE
Meteor 1-24 Rocket 3.7 13:40:39 10° S 13:46:01 70° ESE 13:51:35 10° NNE
Timation 2 Rocket 4.2 13:42:17 10° SSW 13:48:23 60° ESE 13:54:48 10° NE
YAOGAN 1 3.4 13:44:58 10° ESE 13:48:44 30° NE 13:52:31 10° N
Ariane Rocket 4.1 13:45:23 10° E 13:49:19 23° NE 13:53:16 10° N
Cosmos 2341 Rocket 4.5 13:46:20 10° SSE 13:52:09 40° E 13:57:58 10° NNE
Cosmos 2227 Rocket 3.2 13:48:16 10° SSE 13:52:56 27° ESE 13:57:37 10° NE
Cosmos 614 Rocket 4.5 13:48:49 10° NNW 13:53:42 39° NE 13:58:35 10° ESE
Cosmos 1833 Rocket 3.9 13:51:01 10° WNW 13:55:59 30° N 14:00:56 10° NE
IRS-1C Rocket 4.2 13:50:46 10° SSE 13:56:02 88° WSW 14:01:22 10° NNW
NOAA 12 4.1 13:53:09 10° SSE 13:58:23 75° ENE 14:03:41 10° NNW
Cosmos 1943 3.4 13:55:49 10° NW 14:01:20 51° NE 14:06:51 10° ESE
H-2A R/B 3.0 14:00:00 10° S 14:03:53 75° WSW 14:07:51 10° NNW
Cosmos 1602 Rocket 3.5 13:59:57 10° S 14:04:16 64° E 14:08:35 10° NNE
YAOGAN 6 2.7 14:00:59 10° SE 14:04:32 51° ENE 14:08:04 10° N
SL-16 R/B 4.0 14:00:01 10° NNE 14:05:25 32° NW 14:10:50 10° WSW
SMAP 3.3 14:01:21 10° SSE 14:06:02 76° WSW 14:10:43 10° NNW
ERBS 4.1 14:05:43 10° SSW 14:08:14 20° SSE 14:10:40 10° E
NOSS 3-3 (A) 4.4 14:02:08 10° WNW 14:09:02 82° NNE 14:16:54 10° ESE
NOSS 3-3 (C) 4.4 14:02:13 10° WNW 14:09:07 82° NNE 14:16:59 10° ESE
PSLV R/B 4.2 14:05:21 10° NNE 14:09:20 48° E 14:13:18 10° S
Cosmos 1937 Rocket 4.3 14:04:55 10° WSW 14:10:05 50° NW 14:15:17 10° NNE
COSMOS 2487 4.3 14:09:40 10° W 14:12:39 25° NW 14:15:38 10° NNE
Cosmos 2084 3.5 14:08:31 10° WNW 14:13:00 73° NNE 14:17:15 11° E
Cosmos 2298 Rocket 4.2 14:07:50 10° SW 14:13:10 78° NW 14:18:33 10° NNE
SeaSat 1 3.9 14:09:02 10° NE 14:13:10 27° NNW 14:17:18 10° WNW
Cosmos 2184 Rocket 4.1 14:07:43 10° SSW 14:13:53 83° WNW 14:20:08 10° NNE
COSMO-SKYMED 1 3.7 14:10:39 10° NE 14:14:13 24° E 14:17:45 10° SE
Cosmos 1842 Rocket 4.1 14:10:19 10° N 14:14:29 36° ENE 14:18:39 10° SE
SL-14 R/B 3.3 14:11:34 10° SSW 14:15:32 86° WNW 14:19:29 10° NNE
FengYun 1-2 T 4.2 14:10:06 10° SSE 14:15:44 72° ENE 14:21:25 10° NNW
Cosmos 1340 Rocket 4.4 14:13:39 10° NNW 14:17:24 40° W 14:21:08 10° SSW
Cosmos 1953 Rocket 4.3 14:14:24 10° SSE 14:18:25 33° E 14:22:25 10° NNE
Cosmos 1140 Rocket 4.0 14:15:04 10° NNW 14:20:03 41° NE 14:25:01 10° ESE
Cosmos 1626 2.2 14:16:28 10° SSW 14:20:11 83° WNW 14:23:57 10° NNE
CZ-4B R/B 2.3 14:18:41 10° N 14:21:39 43° WNW 14:24:35 10° SW
Cosmos 1674 4.2 14:18:14 10° SW 14:21:41 35° WNW 14:25:10 10° N
Cosmos 1758 Rocket 3.7 14:18:10 10° S 14:22:18 48° E 14:26:31 10° NNE
CSL-04 Debris 4.3 14:17:23 10° SE 14:22:39 55° ENE 14:27:58 10° NNW
ATLAS CENTAUR R/B 2.7 14:18:43 10° WNW 14:22:42 41° SW 14:26:22 10° SSE
Cosmos 2154 Rocket 4.0 14:16:57 10° S 14:23:13 82° E 14:29:28 10° NNE
Cosmos 1689 Rocket 2.4 14:20:40 10° NNE 14:23:37 64° WNW 14:26:33 10° SSW
Cosmos 1626 Rocket 3.7 14:19:44 10° SSW 14:24:04 77° WNW 14:28:25 10° NNE
CZ-4 R/B 1.5 14:20:29 10° SE 14:24:34 57° ENE 14:28:43 10° NNW
Meteor 2-5 Rocket 4.3 14:19:34 10° SW 14:25:06 59° WNW 14:30:46 10° NNE
Iridium 96 3.4 14:22:48 10° N 14:25:10 61° E 14:27:37 10° SSE
Cosmos 2251 Rocket 3.8 14:19:57 10° NW 14:25:16 77° WSW 14:30:35 10° SSE
Cosmos 1607 3.9 14:22:15 10° SW 14:28:24 80° SE 14:33:39 15° ENE
SJ-6B 4.3 14:30:39 16° NE 14:30:42 16° NE 14:33:06 10° N
Cosmos 372 Rocket 4.4 14:26:18 10° SW 14:31:26 63° NW 14:36:39 10° NNE
H-2A R/B 4.1 14:28:51 10° N 14:32:31 25° NW 14:36:11 10° WSW
SJ 16-02 3.1 14:28:46 10° W 14:32:32 26° NW 14:36:20 10° NNE
Meteor 2-17 Rocket 4.4 14:27:00 10° S 14:33:06 74° E 14:39:14 10° NNE
USA 267 4.1 14:29:10 14° E 14:34:07 35° SE 14:40:02 10° SSW
Cosmos 2082 Rocket 3.4 14:30:42 10° WNW 14:35:35 29° N 14:39:25 15° NE
ATLAS 5 CENTAUR R/B 2.0 14:31:28 10° W 14:36:07 73° NNW 14:40:05 18° ENE
H-2A R/B 2.9 14:34:26 12° ESE 14:38:16 29° NE 14:42:43 10° N
Cosmos 1818 3.9 14:33:37 10° WNW 14:38:59 54° N 14:42:48 19° ENE
Cosmos 1125 Rocket 3.6 14:34:01 10° SW 14:39:15 84° NW 14:44:33 10° NNE
Cosmos 2366 rocket 4.2 14:35:31 10° SSE 14:41:29 49° E 14:47:33 10° NNE
CSL-04 Rocket 3.7 14:36:29 10° SSE 14:42:00 70° ENE 14:47:34 10° NNW
Cosmos 1400 Rocket 4.4 14:40:13 10° N 14:42:53 18° NE 14:42:53 18° NE
COSMOS 2406 4.2 14:38:46 10° NW 14:43:49 31° NNE 14:46:59 19° ENE
Cosmos 1954 Rocket 4.4 14:38:43 10° NNW 14:43:50 43° NE 14:47:57 15° ESE
USA 32 4.0 14:38:41 10° S 14:43:55 78° E 14:49:10 10° N
Envisat 3.6 14:39:21 10° S 14:44:23 62° WSW 14:49:28 10° NNW
Cosmos 1825 Rocket 3.5 14:40:18 10° S 14:44:36 65° E 14:48:54 10° NNE
Cosmos 1356 Rocket 3.2 14:41:14 10° NNW 14:45:18 78° ENE 14:49:24 10° SSE
Cosmos 724 4.5 14:39:58 10° SSW 14:45:45 57° SE 14:49:52 19° ENE
COBE Rocket 4.4 14:41:12 10° NNE 14:46:19 66° WNW 14:51:28 10° SSW
Cosmos 2221 2.7 14:42:14 10° N 14:46:25 48° ENE 14:50:35 10° SE
Cosmos 962 Rocket 4.4 14:40:26 10° S 14:46:35 80° E 14:52:51 10° NNE
Cosmos 1703 3.6 14:44:25 10° SSE 14:48:10 42° E 14:51:40 12° NNE
Cosmos 1455 2.8 14:45:42 10° NNW 14:49:29 61° W 14:53:13 10° S
Cosmos-2242 3.9 14:48:43 10° NNW 14:52:57 52° W 14:57:06 10° S
Cosmos 1242 Rocket 4.1 14:52:41 10° SW 14:56:00 35° WNW 14:59:24 10° N
Cosmos 407 Rocket 3.4 14:51:48 10° NNW 14:57:09 72° NE 15:02:25 10° SE
Meteor 2-10 Rocket 4.1 14:52:01 10° NNW 14:57:18 61° W 15:02:21 10° S
Cosmos 1190 Rocket 4.0 14:52:30 10° NNW 14:57:49 67° NE 15:03:08 10° SE
SL-16 R/B 3.8 14:57:20 10° NW 15:02:33 38° WSW 15:07:43 10° S
SKYMED 2 3.7 14:58:22 10° NNE 15:02:39 52° E 15:06:54 10° S
Cosmos 1727 Rocket 3.9 14:56:35 10° NNW 15:02:50 88° ENE 15:09:01 10° SSE
Cosmos 839 Rocket 4.4 14:59:23 10° W 15:05:30 56° N 15:09:48 23° ENE
Okean-O 3.9 15:02:52 10° S 15:07:08 45° W 15:11:25 10° NNW
SPOT 3 Rocket 4.2 15:05:59 25° E 15:07:58 34° NE 15:12:36 10° N
Cosmos 1869 3.5 15:04:09 10° N 15:08:03 46° ENE 15:10:44 18° SE
Cosmos 676 Rocket 4.1 15:04:53 10° NNW 15:10:11 58° NE 15:13:52 20° ESE
HJ-1C 3.5 15:09:27 32° ESE 15:10:37 50° ENE 15:13:54 10° N
ISS -1.6 15:10:42 10° SSW 15:12:49 16° SSE 15:13:25 15° SSE
Resurs 01 Rocket 3.1 15:14:55 20° NE 15:14:55 20° NE 15:17:31 10° N
SL-8 Rocket 3.9 15:08:01 10° S 15:14:19 85° E 15:20:36 10° NNE
CZ-2D R/B 3.2 15:10:44 10° SSE 15:14:35 88° WSW 15:18:30 10° NNW
Cosmos 1603 3.9 15:10:16 10° NW 15:15:58 71° SW 15:21:35 10° SSE
Cosmos 1939 Rocket 2.9 15:13:54 10° SSE 15:17:53 84° WSW 15:21:59 10° NNW
Cosmos 2082 3.8 15:12:31 10° SSW 15:18:00 55° ESE 15:21:06 26° NE
Cosmos 2219 3.2 15:13:21 10° SW 15:19:01 85° NW 15:23:07 20° NE
ADEOS Rocket 3.7 15:12:55 10° NNE 15:19:03 39° E 15:25:44 10° SSE
Cosmos 44 3.4 15:16:35 10° SSW 15:20:51 46° SE 15:21:53 38° E
Cosmos 2297 Rocket 2.1 15:17:21 10° SW 15:23:01 83° SE 15:26:46 22° NE
YAOGAN 1 3.1 15:20:21 10° S 15:24:38 61° WSW 15:28:58 10° NNW
Meteor 1-27 4.3 15:19:46 10° NNW 15:25:22 76° WSW 15:30:55 10° S
ARGOS 3.3 15:23:24 24° ESE 15:26:21 48° ENE 15:31:33 10° NNW
SJ-11-01 4.2 15:22:15 10° SE 15:26:56 63° ENE 15:31:37 10° NNW
Ariane Rocket 2.9 15:22:34 10° SSE 15:27:38 75° ENE 15:32:45 10° NNW
Cosmos 1238 4.0 15:26:08 10° NNW 15:29:10 81° ENE 15:29:21 75° SE
Cosmos 2263 Rocket 3.8 15:25:45 10° SSE 15:27:34 17° SE 15:27:34 17° SE
Meteor 1-11 4.1 15:28:32 10° S 15:34:05 68° E 15:39:38 10° NNE
Cosmos 614 Rocket 4.3 15:30:32 10° NW 15:35:43 68° WSW 15:40:54 10° SSE
Timation 2 Rocket 4.5 15:29:49 10° WSW 15:36:02 58° NNW 15:40:33 21° NE
Cosmos 2227 Rocket 2.1 15:30:45 10° SW 15:36:26 90° SE 15:39:48 26° NE
CZ-2C R/B 3.4 15:35:30 29° ESE 15:38:13 53° ENE 15:43:51 10° NNW
Cosmos 1833 Rocket 3.6 15:36:16 10° NW 15:41:24 34° NNE 15:42:44 30° NE
ERBS 3.2 15:40:52 10° WSW 15:43:39 38° S 15:43:39 38° S
Terra 4.0 15:46:37 12° NNE 15:46:37 12° NNE 15:47:31 10° N
Cosmos 1943 3.7 15:40:01 10° NW 15:45:36 60° WSW 15:51:09 10° SSE
Cosmos 1821 Rocket 4.0 15:42:16 10° S 15:48:28 59° E 15:54:36 10° NNE
SeaSat 1 3.9 15:48:29 22° NNE 15:49:41 24° N 15:53:35 10° NW
COSMO-SKYMED 1 2.8 15:46:35 11° NNE 15:50:49 71° WNW 15:55:09 10° SSW
Cosmos 2084 4.0 15:48:10 10° WNW 15:52:31 54° SW 15:53:49 38° SSE
Cosmos 1953 Rocket 4.5 15:51:48 10° SW 15:56:10 50° WNW 16:00:34 10° N
Cosmos 2218 Rocket 4.4 15:53:29 10° SSW 15:59:50 66° WNW 16:06:16 10° NNE
CZ-4 R/B 3.6 15:56:18 10° SSW 15:59:53 28° W 16:03:32 10° NNW
Cosmos 1151 Rocket 4.4 15:56:35 10° N 15:58:46 26° NNE 15:58:46 26° NNE
Cosmos 1140 Rocket 3.8 15:56:58 10° NW 16:02:12 65° WSW 16:05:59 19° SSE
Meteor 2-12 Rocket 4.3 15:57:58 10° S 16:04:03 88° E 16:10:10 10° NNE
DMSP B5D1-3 4.3 16:01:22 22° NNE 16:04:45 75° ESE 16:09:52 10° SSW
SJ-6B 3.8 16:06:16 36° N 16:06:16 36° N 16:08:38 10° NNW
Cosmos 2123 Rocket 3.9 16:00:20 10° NNW 16:06:43 89° ENE 16:13:02 10° SSE
Cosmos 1850 Rocket 3.9 16:03:44 10° NNW 16:09:03 66° NE 16:09:26 64° ENE
Cosmos 1932 4.5 16:03:13 10° SW 16:09:43 89° SE 16:11:58 45° ENE
MetOp-A 4.1 16:10:53 61° ENE 16:11:07 61° ENE 16:16:25 10° NNW
ATLAS 5 CENTAUR R/B 4.0 16:07:41 10° WNW 16:11:47 49° SSW 16:25:31 10° SE
SJ 16-02 3.7 16:10:15 10° NW 16:12:39 14° NNW 16:13:58 13° N
Cosmos 1607 4.2 16:09:51 10° W 16:15:59 62° N 16:17:46 45° NE
H-2A R/B 2.0 16:15:03 35° SSE 16:17:16 82° WSW 16:22:33 10° NNW
USA 267 3.4 16:16:31 49° ESE 16:18:01 59° SSE 16:24:28 10° WSW
Cosmos 1741 Rocket 3.9 16:14:36 10° NNW 16:19:55 73° NE 16:20:01 73° ENE
Cosmos 1934 Rocket 3.8 16:14:08 10° S 16:20:05 62° E 16:26:04 10° NNE
Cosmos 1400 Rocket 4.0 16:16:09 10° NNW 16:18:32 34° NNW 16:18:32 34° NNW
Cosmos 2082 Rocket 3.0 16:15:55 10° NW 16:21:07 36° NNE 16:21:16 36° NNE
ATLAS 5 CENTAUR R/B 2.0 16:16:16 10° WNW 16:21:13 68° N 16:21:38 65° NE
Cosmos 1818 3.4 16:17:36 10° WNW 16:23:06 78° NNE 16:23:26 74° ENE
Cosmos 2221 4.3 16:20:04 10° NNW 16:23:52 32° W 16:27:42 10° SSW
Cosmos 1954 Rocket 4.5 16:20:53 10° NW 16:26:09 60° WSW 16:28:15 35° S
Cosmos 2239 Rocket 4.4 16:20:06 10° S 16:26:27 85° E 16:32:49 10° NNE
SL-08 RB Rocket 4.0 16:28:36 60° N 16:28:36 60° N 16:32:23 10° NNW
COSMOS 2406 3.4 16:23:37 10° NW 16:29:04 55° NNE 16:29:04 55° NNE
Cosmos 724 4.4 16:25:52 10° WSW 16:31:46 67° NNW 16:32:52 55° NNE
Meteor 2-20 4.3 16:28:48 10° NNW 16:34:56 87° ENE 16:36:14 58° SSE
Cosmos 1535 Rocket 4.4 16:35:42 10° S 16:42:03 81° E 16:48:30 10° NNE
SPOT 3 Rocket 3.7 16:46:38 63° SW 16:47:08 68° WSW 16:52:19 10° NNW
Resurs 01 Rocket 3.2 16:52:29 28° NNW 16:52:29 28° NNW 16:54:37 10° NNW
Meteor 2-20 Rocket 4.3 16:43:59 10° NNW 16:50:07 86° ENE 16:50:08 86° E
Cosmos 1447 Rocket 4.4 16:51:32 10° NNW 16:57:41 80° W 16:58:19 72° SSW
Cosmos 44 4.4 16:57:35 10° WSW 17:00:20 36° W 17:00:20 36° W
Cosmos 2082 4.3 16:56:43 10° WSW 17:02:15 53° NW 17:03:00 50° N
Cosmos 2219 4.3 16:58:37 10° W 17:03:52 38° NNW 17:05:02 34° N
ADEOS Rocket 3.4 16:58:32 10° NNE 17:05:00 72° WNW 17:12:11 10° SSW
Cosmos 839 Rocket 4.2 16:59:52 10° WNW 17:06:17 73° NNE 17:06:25 73° NE
ARGOS 4.0 17:04:53 34° SW 17:06:42 46° W 17:11:56 10° NNW
Cosmos 2297 Rocket 3.2 17:02:14 10° W 17:07:37 41° NNW 17:08:35 38° N
Cosmos 2263 Rocket 3.9 17:07:34 10° SSW 17:09:20 21° SSW 17:09:20 21° SSW
CZ-2C R/B 4.2 17:16:33 35° SW 17:18:15 45° W 17:23:47 10° NNW
Cosmos 2227 Rocket 3.2 17:15:49 10° W 17:21:07 39° NNW 17:21:38 38° NNW
Terra 4.2 17:25:30 15° N 17:25:30 15° N 17:26:24 10° N
Cosmos 1833 Rocket 3.6 17:20:34 10° NW 17:24:26 43° NNW 17:24:26 43° NNW
SeaSat 1 4.2 17:28:16 26° NNW 17:28:16 26° NNW 17:30:48 10° NW
SJ 16-02 4.3 17:50:34 10° NNW 17:50:58 11° NNW 17:50:58 11° NNW
H-2A R/B 4.3 17:55:39 17° WSW 17:57:34 20° W 18:01:24 10° NW
USA 267 4.1 18:03:51 42° WSW 18:03:51 42° WSW 18:08:06 10° W
Cosmos 2082 Rocket 3.8 18:00:17 10° NW 18:03:07 31° NW 18:03:07 31° NW
ATLAS 5 CENTAUR R/B 3.8 18:00:51 10° WNW 18:03:10 28° WNW 18:03:10 28° WNW
Cosmos 2297 Rocket 4.4 18:48:05 10° WNW 18:50:25 21° NW 18:50:25 21° NW
Cosmos 2369 Rocket 4.2 23:40:19 24° NNE 23:40:19 24° NNE 23:42:37 10° NE
ATLAS 3B R/B 4.5 23:49:50 21° ESE 23:49:50 21° ESE 23:51:48 10° ESE
